Location: Caltech
(34.1382°N, 118.1253°W)
Time: 14:57:57
(UTC-07:00)

Iridium 3 - Visible Passes

Search period start: 23 March 2017 00:00
Search period end: 02 April 2017 00:00
Orbit: 776 x 779 km, 86.4° (Epoch: 22 March)

Date Brightness Start Highest point End Pass type
(mag) Time Alt. Az. Time Alt. Az. Time Alt. Az.
23 Mar 7.9 20:54:23 10° NNW 20:58:24 23° W 21:02:24 10° SW visible
24 Mar 6.8 20:20:09 10° NNW 20:25:05 44° W 20:29:59 10° SSW visible
25 Mar 5.6 19:46:25 10° N 19:51:39 86° W 19:56:51 10° S visible
26 Mar 8.6 20:55:23 10° NW 20:58:19 15° W 21:01:15 10° WSW visible
27 Mar 7.6 20:20:37 10° NNW 20:25:04 29° W 20:29:31 10° SW visible
28 Mar 6.3 19:46:36 10° N 19:51:43 57° W 19:56:48 10° SSW visible
30 Mar 8.4 20:21:19 10° NW 20:25:01 20° W 20:28:43 10° SW visible
31 Mar 7.3 19:46:56 10° NNW 19:51:44 38° W 19:56:30 10° SSW visible
